EA1DB-1 Weather Reports


time (UTC)temp
C
wind
direction
speed
KPH
gust
KPH
rain 1hr
cm
rain 24hr
cm
rain mn
cm
humidity
%
barometer
mb
20260503211148 13 0.0 1.6 0.00 0.00 0.00 75 1010.8
20260503210123 13 0.0 0.0 0.00 0.00 0.00 74 1010.8
20260503205148 13 0.0 1.6 0.00 0.00 0.00 74 1010.6
20260503204144 13 0.0 1.6 0.00 0.00 0.00 72 1010.7
20260503203208 13 0.0 0.0 0.00 0.00 0.00 72 1010.4
20260503202123 13 180 1.6 4.8 0.00 0.00 0.00 71 1010.4
20260503201147 13 0.0 1.6 0.00 0.00 0.00 71 1010.2
20260503200123 13 180 0.0 1.6 0.00 0.00 0.00 70 1010.2
20260503195148 14 270 0.0 3.2 0.00 0.00 0.00 70 1010.0
20260503194124 14 0.0 1.6 0.00 0.00 0.00 69 1010.1
20260503193148 15 0.0 3.2 0.00 0.00 0.00 68 1009.9
20260503192124 15 0.0 1.6 0.00 0.00 0.00 67 1009.8
20260503191148 15 135 0.0 1.6 0.00 0.00 0.00 67 1009.8
20260503190144 15 135 1.6 4.8 0.00 0.00 0.00 66 1009.9
20260503185148 15 0.0 0.0 0.00 0.00 0.00 66 1009.6
20260503184124 15 180 0.0 3.2 0.00 0.00 0.00 66 1009.8
20260503183148 15 135 0.0 4.8 0.00 0.00 0.00 65 1009.6
20260503182124 15 292 4.8 4.8 0.00 0.00 0.00 64 1009.7
20260503181148 16 225 4.8 9.7 0.00 0.00 0.00 65 1009.7
20260503180124 -22 315 3.2 9.7 0.00 0.00 0.00 97 1009.7
20260503175149 16 0 0.0 4.8 0.00 0.00 0.00 64 1009.8
20260503174124 16 270 1.6 6.4 0.00 0.00 0.00 64 1009.8
20260503173147 16 315 3.2 6.4 0.00 0.00 0.00 64 1009.8
20260503172124 16 180 3.2 9.7 0.00 0.00 0.00 63 1009.6
20260503171148 16 0.0 0.0 0.00 0.00 0.00 63 1009.7
20260503170124 16 0.0 1.6 0.00 0.00 0.00 62 1009.6
20260503160124 17 225 4.8 9.7 0.00 0.00 0.00 58 1009.6
20260503150123 17 270 4.8 9.7 0.00 0.00 0.00 62 1009.8
20260503140124 18 315 8.0 12.9 0.00 0.00 0.00 62 1009.9
20260503131148 17 315 4.8 12.9 0.00 0.00 0.00 69 1009.6
20260503130124 16 180 0.0 3.2 0.00 0.00 0.00 71 1009.7
20260503120123 15 0.0 1.6 0.00 0.00 0.00 88 1009.6
20260503110123 15 315 9.7 14.5 0.00 0.00 0.00 93 1009.8
20260503100123 13 0.0 1.6 0.00 0.00 0.00 94 1009.6
20260503090144 13 0.0 0.0 0.00 0.00 0.00 94 1009.6
20260503081635 12 0.0 0.0 0.00 0.00 0.00 93 1009.3
20260503080611 12 180 0.0 1.6 0.00 0.00 0.00 93 1009.5
20260503072612 12 315 0.0 1.6 0.00 0.00 0.00 93 1009.3
20260503071635 12 315 0.0 1.6 0.00 0.00 0.00 93 1009.1
20260503070612 13 315 0.0 3.2 0.00 0.00 0.00 93 1009.1
20260503054611 13 0.0 0.0 0.00 0.00 0.00 92 1008.6
20260503053635 13 0.0 0.0 0.00 0.00 0.00 92 1008.7
20260503052612 13 0.0 0.0 0.00 0.00 0.00 91 1008.6
20260503051636 13 0.0 0.0 0.00 0.00 0.00 91 1008.6
20260503050611 13 0.0 0.0 0.00 0.00 0.00 92 1008.6
20260503045656 13 0.0 0.0 0.00 0.00 0.00 92 1008.6
20260503044611 13 0.0 0.0 0.00 0.00 0.00 92 1008.7
20260503043635 13 0.0 0.0 0.00 0.00 0.00 92 1008.7
20260503042611 13 0.0 0.0 0.00 0.00 0.00 92 1008.7
20260503041635 13 0.0 0.0 0.00 0.00 0.00 92 1008.7
20260503040611 13 0.0 0.0 0.00 0.00 0.00 92 1008.7
20260503035636 13 0.0 0.0 0.00 0.00 0.00 92 1008.9
20260503034613 13 0.0 0.0 0.00 0.00 0.00 92 1008.9
20260503033636 13 0.0 0.0 0.00 0.00 0.00 92 1009.0
20260503032611 13 0.0 1.6 0.00 0.00 0.00 92 1009.1
20260503031635 13 0.0 0.0 0.00 0.00 0.00 91 1009.3
20260503030611 13 0.0 0.0 0.00 0.00 0.00 91 1009.0
20260503025635 13 0.0 0.0 0.00 0.00 0.00 91 1009.2
20260503024631 13 0.0 0.0 0.00 0.00 0.00 91 1009.3
20260503023635 13 0.0 0.0 0.00 0.00 0.00 91 1009.3
20260503022611 13 0.0 0.0 0.00 0.00 0.00 91 1009.3
20260503021635 13 0.0 0.0 0.00 0.00 0.00 90 1009.5
20260503020611 13 0.0 0.0 0.00 0.00 0.00 90 1009.4
20260503015756 13 0.0 0.0 0.00 0.00 0.00 90 1009.5
20260503014613 13 0.0 0.0 0.00 0.00 0.00 90 1009.5
20260503013636 13 0.0 0.0 0.00 0.00 0.00 90 1009.6
20260503012612 13 0.0 0.0 0.00 0.00 0.00 90 1009.9
20260503011635 13 0.0 0.0 0.00 0.00 0.00 89 1009.8
20260503010611 13 0.0 0.0 0.00 0.00 0.00 89 1009.9
20260503005635 13 0.0 0.0 0.00 0.00 0.00 89 1010.1
20260503004631 13 0.0 0.0 0.00 0.00 0.00 89 1010.2
20260503003635 13 0.0 0.0 0.00 0.00 0.00 89 1010.4
20260503002611 13 0.0 0.0 0.00 0.00 0.00 89 1010.5
20260503001635 13 0.0 0.0 0.00 0.00 0.00 89 1010.4
20260503000612 14 315 1.6 3.2 0.00 0.00 0.00 89 1010.6
20260502235636 14 0.0 0.0 0.00 0.00 0.00 89 1010.7
20260502234652 14 0.0 0.0 0.00 0.00 0.00 89 1010.6
20260502233635 14 0.0 0.0 0.00 0.00 0.00 89 1010.6
20260502232611 14 0.0 0.0 0.00 0.00 0.00 88 1010.6
20260502231655 14 0.0 0.0 0.00 0.00 0.00 88 1010.7
20260502230611 14 0.0 0.0 0.00 0.00 0.00 88 1010.8
20260502225635 14 0.0 0.0 0.00 0.00 0.00 88 1010.8
20260502224631 14 135 1.6 4.8 0.00 0.00 0.00 88 1010.8
20260502223655 14 0.0 1.6 0.00 0.00 0.00 88 1010.7
20260502222611 14 0.0 0.0 0.00 0.00 0.00 87 1010.9
20260502221635 14 0.0 0.0 0.00 0.00 0.00 87 1010.9
20260502220631 14 0.0 0.0 0.00 0.00 0.00 87 1011.1
20260502215635 14 0.0 0.0 0.00 0.00 0.00 87 1010.9
20260502214612 14 0.0 0.0 0.00 0.00 0.00 87 1011.1
20260502213636 15 0.0 0.0 0.00 0.00 0.00 86 1011.2
20260502212612 15 0.0 0.0 0.00 0.00 0.00 86 1011.3